Time,TemperatureF,DewpointF,PressureIn,WindDirection,WindDirectionDegrees,WindSpeedMPH,WindSpeedGustMPH,Humidity,HourlyPrecipIn,Conditions,Clouds,dailyrainin,SoftwareType,DateUTC
2013-02-25 00:00:00,37.0,30.5,30.03,NW,315,2.3,2.3,77,0.00,RA,,0.00,WeatherDisplay:10.37,2013-02-25 05:00:00,
2013-02-25 00:05:00,37.0,30.2,30.03,NW,315,1.1,0.0,76,0.00,RA,,0.00,WeatherDisplay:10.37,2013-02-25 05:05:00,
2013-02-25 00:10:00,37.0,30.5,30.03,SW,225,0.0,0.0,77,0.00,CLR,,0.00,WeatherDisplay:10.37,2013-02-25 05:10:00,
2013-02-25 00:15:00,37.0,30.2,30.02,NW,315,0.0,0.0,76,0.00,CLR,,0.00,WeatherDisplay:10.37,2013-02-25 05:15:00,
2013-02-25 00:20:00,36.9,30.0,30.02,West,270,0.0,0.0,76,0.00,CLR,,0.00,WeatherDisplay:10.37,2013-02-25 05:20:00,
2013-02-25 00:25:00,36.5,29.7,30.03,West,270,0.0,0.0,76,0.00,CLR,,0.00,WeatherDisplay:10.37,2013-02-25 05:25:00,
2013-02-25 00:30:00,36.3,29.8,30.03,West,270,0.0,0.0,77,0.00,CLR,,0.00,WeatherDisplay:10.37,2013-02-25 05:30:00,
2013-02-25 00:35:00,36.1,29.6,30.03,NW,315,0.0,0.0,77,0.00,CLR,,0.00,WeatherDisplay:10.37,2013-02-25 05:35:00,
2013-02-25 00:40:00,36.0,29.4,30.02,North,0,1.1,0.0,77,0.00,CLR,,0.00,WeatherDisplay:10.37,2013-02-25 05:40:00,
2013-02-25 00:45:00,35.8,29.3,30.02,SW,225,0.0,0.0,77,0.00,CLR,,0.00,WeatherDisplay:10.37,2013-02-25 05:45:00,
2013-02-25 00:50:00,35.8,29.3,30.01,NW,315,0.0,0.0,77,0.00,CLR,,0.00,WeatherDisplay:10.37,2013-02-25 05:50:00,
2013-02-25 00:55:00,35.2,30.0,30.01,NW,315,0.0,0.0,81,0.00,CLR,,0.00,WeatherDisplay:10.37,2013-02-25 05:55:00,
2013-02-25 01:00:00,35.1,29.5,30.01,NW,315,2.3,0.0,80,0.00,CLR,,0.00,WeatherDisplay:10.37,2013-02-25 06:00:00,
2013-02-25 01:05:00,35.1,29.5,30.00,NW,315,4.6,4.6,80,0.00,CLR,,0.00,WeatherDisplay:10.37,2013-02-25 06:05:00,
2013-02-25 01:10:00,35.2,29.7,30.00,NW,315,4.6,0.0,80,0.00,CLR,,0.00,WeatherDisplay:10.37,2013-02-25 06:10:00,
2013-02-25 01:15:00,35.6,29.7,30.00,NW,315,2.3,2.3,79,0.00,CLR,,0.00,WeatherDisplay:10.37,2013-02-25 06:15:00,
2013-02-25 01:20:00,36.1,29.9,30.01,NW,315,0.0,0.0,78,0.00,CLR,,0.00,WeatherDisplay:10.37,2013-02-25 06:20:00,
2013-02-25 01:25:00,36.3,29.8,30.01,NW,315,2.7,2.7,77,0.00,CLR,,0.00,WeatherDisplay:10.37,2013-02-25 06:25:00,
2013-02-25 01:30:00,36.5,30.0,30.00,NW,315,2.3,2.3,77,0.00,CLR,,0.00,WeatherDisplay:10.37,2013-02-25 06:30:00,
2013-02-25 01:35:00,36.9,30.0,30.00,NW,315,2.3,0.0,76,0.00,CLR,,0.00,WeatherDisplay:10.37,2013-02-25 06:35:00,
2013-02-25 01:40:00,37.0,29.8,30.00,NW,315,2.3,2.3,75,0.00,CLR,,0.00,WeatherDisplay:10.37,2013-02-25 06:40:00,
2013-02-25 01:45:00,37.2,30.0,30.00,North,0,1.1,1.3,75,0.00,CLR,,0.00,WeatherDisplay:10.37,2013-02-25 06:45:00,
2013-02-25 01:50:00,37.2,30.0,29.99,North,0,1.1,1.3,75,0.00,CLR,,0.00,WeatherDisplay:10.37,2013-02-25 06:50:00,
2013-02-25 01:55:00,37.0,29.8,29.99,NW,315,4.6,4.6,75,0.00,CLR,,0.00,WeatherDisplay:10.37,2013-02-25 06:55:00,
2013-02-25 02:00:00,37.0,30.2,29.99,NW,315,2.7,0.0,76,0.00,CLR,,0.00,WeatherDisplay:10.37,2013-02-25 07:00:00,
2013-02-25 02:05:00,37.2,30.3,29.99,NW,315,0.0,0.0,76,0.00,CLR,,0.00,WeatherDisplay:10.37,2013-02-25 07:05:00,
2013-02-25 02:10:00,37.2,30.0,30.00,NW,315,0.0,0.0,75,0.00,CLR,,0.00,WeatherDisplay:10.37,2013-02-25 07:10:00,
2013-02-25 02:15:00,37.2,30.0,29.99,NW,315,1.1,0.0,75,0.00,CLR,,0.00,WeatherDisplay:10.37,2013-02-25 07:15:00,
2013-02-25 02:20:00,37.0,29.8,30.00,NW,315,2.3,0.0,75,0.00,CLR,,0.00,WeatherDisplay:10.37,2013-02-25 07:20:00,
2013-02-25 02:25:00,37.0,29.8,30.00,NW,315,1.1,0.0,75,0.00,CLR,,0.00,WeatherDisplay:10.37,2013-02-25 07:25:00,
2013-02-25 02:30:00,36.9,29.7,30.00,NW,315,2.3,0.0,75,0.00,CLR,,0.00,WeatherDisplay:10.37,2013-02-25 07:30:00,
2013-02-25 02:35:00,36.7,29.5,29.99,North,0,2.3,2.3,75,0.00,CLR,,0.00,WeatherDisplay:10.37,2013-02-25 07:35:00,
2013-02-25 02:40:00,36.7,29.5,30.00,NW,315,2.3,0.0,75,0.00,CLR,,0.00,WeatherDisplay:10.37,2013-02-25 07:40:00,
2013-02-25 02:45:00,36.7,29.8,30.00,NW,315,0.0,0.0,76,0.00,CLR,,0.00,WeatherDisplay:10.37,2013-02-25 07:45:00,
2013-02-25 02:50:00,36.7,29.8,29.99,NW,315,0.0,0.0,76,0.00,CLR,,0.00,WeatherDisplay:10.37,2013-02-25 07:50:00,
2013-02-25 02:55:00,36.5,29.7,29.99,NE,45,0.0,0.0,76,0.00,CLR,,0.00,WeatherDisplay:10.37,2013-02-25 07:55:00,
2013-02-25 03:00:00,36.3,29.8,29.99,NE,45,0.0,0.0,77,0.00,CLR,,0.00,WeatherDisplay:10.37,2013-02-25 08:00:00,
2013-02-25 03:05:00,36.3,29.8,29.99,NE,45,0.0,0.0,77,0.00,CLR,,0.00,WeatherDisplay:10.37,2013-02-25 08:05:00,
2013-02-25 03:10:00,36.3,30.1,29.99,North,0,0.0,0.0,78,0.00,CLR,,0.00,WeatherDisplay:10.37,2013-02-25 08:10:00,
2013-02-25 03:15:00,36.1,29.9,29.99,North,0,0.0,0.0,78,0.00,CLR,,0.00,WeatherDisplay:10.37,2013-02-25 08:15:00,
2013-02-25 03:20:00,36.1,29.9,29.99,NW,315,2.3,0.0,78,0.00,CLR,,0.00,WeatherDisplay:10.37,2013-02-25 08:20:00,
2013-02-25 03:25:00,36.0,30.1,30.00,NW,315,0.0,0.0,79,0.00,CLR,,0.00,WeatherDisplay:10.37,2013-02-25 08:25:00,
2013-02-25 03:30:00,36.0,30.4,29.99,NW,315,0.0,0.0,80,0.00,CLR,,0.00,WeatherDisplay:10.37,2013-02-25 08:30:00,
2013-02-25 03:35:00,36.0,30.4,29.99,NW,315,4.6,4.6,80,0.00,CLR,,0.00,WeatherDisplay:10.37,2013-02-25 08:35:00,
2013-02-25 03:40:00,36.1,30.3,29.99,NW,315,2.3,0.0,79,0.00,CLR,,0.00,WeatherDisplay:10.37,2013-02-25 08:40:00,
2013-02-25 03:45:00,36.3,30.1,29.99,North,0,2.3,2.3,78,0.00,CLR,,0.00,WeatherDisplay:10.37,2013-02-25 08:45:00,
2013-02-25 03:50:00,36.7,30.1,29.99,North,0,5.8,0.0,77,0.00,CLR,,0.00,WeatherDisplay:10.37,2013-02-25 08:50:00,
2013-02-25 03:55:00,36.9,30.0,29.99,North,0,5.8,5.8,76,0.00,CLR,,0.00,WeatherDisplay:10.37,2013-02-25 08:55:00,
2013-02-25 04:00:00,37.4,31.5,29.99,North,0,5.8,5.8,79,0.00,CLR,,0.00,WeatherDisplay:10.37,2013-02-25 09:00:00,
2013-02-25 04:05:00,37.6,31.3,29.99,North,0,2.3,2.3,78,0.00,CLR,,0.00,WeatherDisplay:10.37,2013-02-25 09:05:00,
2013-02-25 04:10:00,37.9,31.4,29.99,North,0,4.6,4.6,77,0.00,CLR,,0.00,WeatherDisplay:10.37,2013-02-25 09:10:00,
2013-02-25 04:15:00,38.1,31.2,30.00,NW,315,1.1,0.0,76,0.00,CLR,,0.00,WeatherDisplay:10.37,2013-02-25 09:15:00,
2013-02-25 04:20:00,37.9,31.0,30.00,North,0,2.3,2.3,76,0.00,CLR,,0.00,WeatherDisplay:10.37,2013-02-25 09:20:00,
2013-02-25 04:25:00,37.8,30.9,29.99,NW,315,4.6,4.6,76,0.00,CLR,,0.00,WeatherDisplay:10.37,2013-02-25 09:25:00,
2013-02-25 04:30:00,37.8,31.2,29.99,North,0,2.3,2.3,77,0.00,CLR,,0.00,WeatherDisplay:10.37,2013-02-25 09:30:00,
2013-02-25 04:35:00,37.6,31.0,30.00,North,0,2.3,2.3,77,0.00,CLR,,0.00,WeatherDisplay:10.37,2013-02-25 09:35:00,
2013-02-25 04:40:00,37.4,30.8,29.99,North,0,4.6,4.6,77,0.00,CLR,,0.00,WeatherDisplay:10.37,2013-02-25 09:40:00,
2013-02-25 04:45:00,37.4,30.8,30.00,North,0,2.3,2.3,77,0.00,CLR,,0.00,WeatherDisplay:10.37,2013-02-25 09:45:00,
2013-02-25 04:50:00,37.4,30.8,29.99,North,0,4.6,4.6,77,0.00,CLR,,0.00,WeatherDisplay:10.37,2013-02-25 09:50:00,
2013-02-25 04:55:00,37.6,31.0,29.99,North,0,4.6,4.6,77,0.00,CLR,,0.00,WeatherDisplay:10.37,2013-02-25 09:55:00,
2013-02-25 05:00:00,37.8,30.9,29.99,North,0,5.8,5.8,76,0.00,CLR,,0.00,WeatherDisplay:10.37,2013-02-25 10:00:00,
2013-02-25 05:05:00,37.8,30.9,29.99,North,0,5.8,5.8,76,0.00,CLR,,0.00,WeatherDisplay:10.37,2013-02-25 10:05:00,
2013-02-25 05:10:00,38.1,31.2,30.00,WNW,292,5.8,5.8,76,0.00,CLR,,0.00,WeatherDisplay:10.37,2013-02-25 10:10:00,
2013-02-25 05:15:00,38.1,31.2,29.99,North,0,6.9,6.9,76,0.00,CLR,,0.00,WeatherDisplay:10.37,2013-02-25 10:15:00,
2013-02-25 05:20:00,38.1,30.9,29.99,North,0,6.9,6.9,75,0.00,CLR,,0.00,WeatherDisplay:10.37,2013-02-25 10:20:00,
2013-02-25 05:25:00,38.1,30.9,29.99,NW,315,6.9,6.9,75,0.00,CLR,,0.00,WeatherDisplay:10.37,2013-02-25 10:25:00,
2013-02-25 05:30:00,38.1,30.9,29.99,North,0,5.8,5.8,75,0.00,CLR,,0.00,WeatherDisplay:10.37,2013-02-25 10:30:00,
2013-02-25 05:35:00,38.1,30.9,29.99,North,0,6.9,6.9,75,0.00,CLR,,0.00,WeatherDisplay:10.37,2013-02-25 10:35:00,
2013-02-25 05:40:00,38.1,30.9,29.98,North,0,10.4,10.4,75,0.00,CLR,,0.00,WeatherDisplay:10.37,2013-02-25 10:40:00,
2013-02-25 05:45:00,38.3,31.1,29.98,North,0,5.8,5.8,75,0.00,CLR,,0.00,WeatherDisplay:10.37,2013-02-25 10:45:00,
2013-02-25 05:50:00,38.3,31.1,29.98,NW,315,5.8,5.8,75,0.00,CLR,,0.00,WeatherDisplay:10.37,2013-02-25 10:50:00,
2013-02-25 05:55:00,38.3,31.1,29.99,North,0,2.3,0.0,75,0.00,CLR,,0.00,WeatherDisplay:10.37,2013-02-25 10:55:00,
2013-02-25 06:00:00,38.3,31.1,29.99,North,0,4.6,4.6,75,0.00,CLR,,0.00,WeatherDisplay:10.37,2013-02-25 11:00:00,
2013-02-25 06:05:00,38.1,30.9,29.99,NW,315,5.8,5.8,75,0.00,CLR,,0.00,WeatherDisplay:10.37,2013-02-25 11:05:00,
2013-02-25 06:10:00,37.9,30.7,29.99,North,0,5.8,5.8,75,0.00,CLR,,0.00,WeatherDisplay:10.37,2013-02-25 11:10:00,
2013-02-25 06:15:00,37.8,30.9,29.99,NE,45,4.6,4.6,76,0.00,CLR,,0.00,WeatherDisplay:10.37,2013-02-25 11:15:00,
2013-02-25 06:20:00,37.6,30.7,29.99,North,0,4.6,4.6,76,0.00,CLR,,0.00,WeatherDisplay:10.37,2013-02-25 11:20:00,
2013-02-25 06:25:00,37.8,30.9,30.00,NE,45,4.6,4.6,76,0.00,CLR,,0.00,WeatherDisplay:10.37,2013-02-25 11:25:00,
2013-02-25 06:30:00,37.8,30.5,30.00,North,0,6.9,6.9,75,0.00,CLR,,0.00,WeatherDisplay:10.37,2013-02-25 11:30:00,
2013-02-25 06:35:00,37.9,30.7,30.00,NW,315,4.6,4.6,75,0.00,CLR,,0.00,WeatherDisplay:10.37,2013-02-25 11:35:00,
2013-02-25 06:40:00,37.9,30.7,30.01,North,0,7.0,7.0,75,0.00,CLR,,0.00,WeatherDisplay:10.37,2013-02-25 11:40:00,
2013-02-25 06:45:00,38.1,30.9,30.00,North,0,4.6,4.6,75,0.00,CLR,,0.00,WeatherDisplay:10.37,2013-02-25 11:45:00,
2013-02-25 06:50:00,38.1,30.9,30.00,NNE,22,5.8,5.8,75,0.00,CLR,,0.00,WeatherDisplay:10.37,2013-02-25 11:50:00,
2013-02-25 06:55:00,38.1,30.9,30.00,North,0,4.6,4.6,75,0.00,CLR,,0.00,WeatherDisplay:10.37,2013-02-25 11:55:00,
2013-02-25 07:00:00,38.3,31.1,30.00,NW,315,10.4,10.4,75,0.00,CLR,,0.00,WeatherDisplay:10.37,2013-02-25 12:00:00,
2013-02-25 07:05:00,38.3,30.7,30.01,North,0,11.5,11.5,74,0.00,CLR,,0.00,WeatherDisplay:10.37,2013-02-25 12:05:00,
2013-02-25 07:10:00,38.5,30.9,30.01,North,0,11.5,11.5,74,0.00,CLR,,0.00,WeatherDisplay:10.37,2013-02-25 12:10:00,
2013-02-25 07:15:00,38.5,30.9,30.01,NE,45,4.6,4.6,74,0.00,CLR,,0.00,WeatherDisplay:10.37,2013-02-25 12:15:00,
2013-02-25 07:20:00,38.5,30.6,30.01,North,0,6.9,6.9,73,0.00,CLR,,0.00,WeatherDisplay:10.37,2013-02-25 12:20:00,
2013-02-25 07:25:00,38.5,30.6,30.01,NE,45,5.8,5.8,73,0.00,CLR,,0.00,WeatherDisplay:10.37,2013-02-25 12:25:00,
2013-02-25 07:30:00,38.5,30.2,30.02,North,0,6.9,6.9,72,0.00,CLR,,0.00,WeatherDisplay:10.37,2013-02-25 12:30:00,
2013-02-25 07:35:00,38.7,30.4,30.02,NNW,338,5.8,5.8,72,0.00,CLR,,0.00,WeatherDisplay:10.37,2013-02-25 12:35:00,
2013-02-25 07:40:00,38.7,30.7,30.03,NW,315,2.3,2.3,73,0.00,CLR,,0.00,WeatherDisplay:10.37,2013-02-25 12:40:00,
2013-02-25 07:46:00,38.5,30.9,30.03,North,0,4.6,4.6,74,0.00,CLR,,0.00,WeatherDisplay:10.37,2013-02-25 12:46:00,
2013-02-25 07:51:00,38.3,31.1,30.02,North,0,4.6,4.6,75,0.00,CLR,,0.00,WeatherDisplay:10.37,2013-02-25 12:51:00,
2013-02-25 07:57:00,38.1,30.9,30.03,North,0,5.8,5.8,75,0.00,CLR,,0.00,WeatherDisplay:10.37,2013-02-25 12:57:00,
2013-02-25 08:02:00,38.3,31.1,30.03,North,0,5.8,5.8,75,0.00,CLR,,0.00,WeatherDisplay:10.37,2013-02-25 13:02:00,
2013-02-25 08:07:00,38.3,31.1,30.03,North,0,4.6,4.6,75,0.00,CLR,,0.00,WeatherDisplay:10.37,2013-02-25 13:07:00,
2013-02-25 08:12:00,38.5,31.2,30.03,NW,315,2.3,0.0,75,0.00,CLR,,0.00,WeatherDisplay:10.37,2013-02-25 13:12:00,
2013-02-25 08:20:00,38.5,31.2,30.03,West,270,0.0,0.0,75,0.00,CLR,,0.00,WeatherDisplay:10.37,2013-02-25 13:20:00,
2013-02-25 08:25:00,38.5,31.6,30.03,North,0,4.6,4.6,76,0.00,CLR,,0.00,WeatherDisplay:10.37,2013-02-25 13:25:00,
2013-02-25 08:30:00,38.7,31.7,30.04,North,0,4.6,4.6,76,0.00,CLR,,0.00,WeatherDisplay:10.37,2013-02-25 13:30:00,
2013-02-25 08:36:00,38.8,31.6,30.03,North,0,5.8,5.8,75,0.00,CLR,,0.00,WeatherDisplay:10.37,2013-02-25 13:36:00,
2013-02-25 08:41:00,39.0,31.8,30.03,North,0,7.0,7.0,75,0.00,CLR,,0.00,WeatherDisplay:10.37,2013-02-25 13:41:00,
2013-02-25 08:46:00,39.2,31.3,30.03,North,0,1.1,0.0,73,0.00,CLR,,0.00,WeatherDisplay:10.37,2013-02-25 13:46:00,
2013-02-25 08:51:00,39.2,31.3,30.03,NE,45,2.3,2.7,73,0.00,CLR,,0.00,WeatherDisplay:10.37,2013-02-25 13:51:00,
2013-02-25 08:56:00,39.4,31.4,30.03,North,0,4.6,0.0,73,0.00,CLR,,0.00,WeatherDisplay:10.37,2013-02-25 13:56:00,
2013-02-25 09:01:00,39.4,31.4,30.04,North,0,2.3,2.3,73,0.00,CLR,,0.00,WeatherDisplay:10.37,2013-02-25 14:01:00,
2013-02-25 09:06:00,39.4,31.4,30.04,North,0,2.7,2.7,73,0.00,CLR,,0.00,WeatherDisplay:10.37,2013-02-25 14:06:00,
2013-02-25 09:11:00,39.9,31.6,30.04,NW,315,5.8,5.8,72,0.00,CLR,,0.00,WeatherDisplay:10.37,2013-02-25 14:11:00,
2013-02-25 09:16:00,40.1,31.4,30.04,North,0,6.9,6.9,71,0.00,CLR,,0.00,WeatherDisplay:10.37,2013-02-25 14:16:00,
2013-02-25 09:21:00,40.3,31.3,30.04,East,90,5.8,5.8,70,0.00,CLR,,0.00,WeatherDisplay:10.37,2013-02-25 14:21:00,
2013-02-25 09:26:00,40.5,31.4,30.04,SW,225,4.6,7.0,70,0.00,CLR,,0.00,WeatherDisplay:10.37,2013-02-25 14:26:00,
2013-02-25 09:31:00,40.6,31.3,30.03,North,0,2.3,0.0,69,0.00,CLR,,0.00,WeatherDisplay:10.37,2013-02-25 14:31:00,
2013-02-25 09:36:00,40.6,31.6,30.04,NNE,22,4.6,4.6,70,0.00,CLR,,0.00,WeatherDisplay:10.37,2013-02-25 14:36:00,
2013-02-25 09:41:00,40.8,31.8,30.04,NW,315,4.6,0.0,70,0.00,CLR,,0.00,WeatherDisplay:10.37,2013-02-25 14:41:00,
2013-02-25 09:46:00,41.0,32.0,30.05,North,0,4.4,4.4,70,0.00,CLR,,0.00,WeatherDisplay:10.37,2013-02-25 14:46:00,
2013-02-25 09:51:00,41.2,32.1,30.04,NE,45,2.3,2.3,70,0.00,CLR,,0.00,WeatherDisplay:10.37,2013-02-25 14:51:00,
2013-02-25 09:56:00,41.4,31.9,30.03,North,0,4.6,4.6,69,0.00,CLR,,0.00,WeatherDisplay:10.37,2013-02-25 14:56:00,
2013-02-25 10:01:00,41.5,31.8,30.03,NE,45,6.9,6.9,68,0.00,CLR,,0.00,WeatherDisplay:10.37,2013-02-25 15:01:00,
2013-02-25 10:06:00,41.7,31.6,30.03,North,0,5.8,5.8,67,0.00,CLR,,0.00,WeatherDisplay:10.37,2013-02-25 15:06:00,
2013-02-25 10:11:00,41.7,31.6,30.04,North,0,4.6,4.6,67,0.00,CLR,,0.00,WeatherDisplay:10.37,2013-02-25 15:11:00,
2013-02-25 10:16:00,41.9,31.7,30.03,North,0,6.9,6.9,67,0.00,CLR,,0.00,WeatherDisplay:10.37,2013-02-25 15:16:00,
2013-02-25 10:21:00,42.1,31.9,30.03,NE,45,4.6,4.6,67,0.00,CLR,,0.00,WeatherDisplay:10.37,2013-02-25 15:21:00,
2013-02-25 10:26:00,42.4,32.3,30.02,East,90,10.4,10.4,67,0.00,CLR,,0.00,WeatherDisplay:10.37,2013-02-25 15:26:00,
2013-02-25 10:31:00,42.6,32.4,30.02,NNE,22,8.1,8.1,67,0.00,CLR,,0.00,WeatherDisplay:10.37,2013-02-25 15:31:00,
2013-02-25 10:36:00,42.8,31.8,30.02,North,0,8.1,8.1,65,0.00,CLR,,0.00,WeatherDisplay:10.37,2013-02-25 15:36:00,
2013-02-25 10:41:00,43.2,32.2,30.01,NE,45,8.1,8.1,65,0.00,CLR,,0.00,WeatherDisplay:10.37,2013-02-25 15:41:00,
2013-02-25 10:46:00,43.3,32.0,30.01,NE,45,6.9,6.9,64,0.00,CLR,,0.00,WeatherDisplay:10.37,2013-02-25 15:46:00,
2013-02-25 10:51:00,43.5,32.1,30.01,East,90,10.4,10.4,64,0.00,CLR,,0.00,WeatherDisplay:10.37,2013-02-25 15:51:00,
2013-02-25 10:56:00,43.7,32.7,30.02,North,0,6.9,6.9,65,0.00,CLR,,0.00,WeatherDisplay:10.37,2013-02-25 15:56:00,
2013-02-25 11:01:00,43.9,32.9,30.02,North,0,6.9,6.9,65,0.00,CLR,,0.00,WeatherDisplay:10.37,2013-02-25 16:01:00,
2013-02-25 11:06:00,44.1,33.0,30.01,North,0,8.4,8.4,65,0.00,CLR,,0.00,WeatherDisplay:10.37,2013-02-25 16:06:00,
2013-02-25 11:11:00,44.1,32.7,30.00,NE,45,8.1,8.1,64,0.00,CLR,,0.00,WeatherDisplay:10.37,2013-02-25 16:11:00,
2013-02-25 11:16:00,44.1,32.7,30.01,NE,45,6.9,6.9,64,0.00,CLR,,0.00,WeatherDisplay:10.37,2013-02-25 16:16:00,
2013-02-25 11:21:00,44.2,32.8,30.02,East,90,6.9,6.9,64,0.00,CLR,,0.00,WeatherDisplay:10.37,2013-02-25 16:21:00,
2013-02-25 11:26:00,44.4,33.0,30.02,North,0,6.9,6.9,64,0.00,CLR,,0.00,WeatherDisplay:10.37,2013-02-25 16:26:00,
2013-02-25 11:31:00,44.6,33.2,30.01,NE,45,4.6,4.6,64,0.00,CLR,,0.00,WeatherDisplay:10.37,2013-02-25 16:31:00,
2013-02-25 11:36:00,44.8,32.9,30.02,East,90,4.6,4.6,63,0.00,CLR,,0.00,WeatherDisplay:10.37,2013-02-25 16:36:00,
2013-02-25 11:41:00,45.0,33.1,30.01,NW,315,6.9,6.9,63,0.00,CLR,,0.00,WeatherDisplay:10.37,2013-02-25 16:41:00,
2013-02-25 11:46:00,45.1,33.7,30.00,North,0,2.3,2.3,64,0.00,CLR,,0.00,WeatherDisplay:10.37,2013-02-25 16:46:00,
2013-02-25 11:51:00,45.9,34.4,30.00,NE,45,8.4,8.4,64,0.00,CLR,,0.00,WeatherDisplay:10.37,2013-02-25 16:51:00,
2013-02-25 11:56:00,46.4,35.3,30.00,SW,225,10.4,10.4,65,0.00,CLR,,0.00,WeatherDisplay:10.37,2013-02-25 16:56:00,
2013-02-25 12:01:00,46.9,35.8,29.99,North,0,5.8,5.8,65,0.00,CLR,,0.00,WeatherDisplay:10.37,2013-02-25 17:01:00,
2013-02-25 12:06:00,47.7,36.1,30.00,North,0,5.8,5.8,64,0.00,CLR,,0.00,WeatherDisplay:10.37,2013-02-25 17:06:00,
2013-02-25 12:11:00,48.0,36.0,30.00,East,90,5.8,5.8,63,0.00,CLR,,0.00,WeatherDisplay:10.37,2013-02-25 17:11:00,
2013-02-25 12:16:00,48.4,36.4,30.00,North,0,4.6,4.6,63,0.00,CLR,,0.00,WeatherDisplay:10.37,2013-02-25 17:16:00,
2013-02-25 12:21:00,49.5,37.8,29.99,West,270,4.6,4.6,64,0.00,CLR,,0.00,WeatherDisplay:10.37,2013-02-25 17:21:00,
2013-02-25 12:26:00,50.9,38.7,29.99,North,0,6.9,6.9,63,0.00,CLR,,0.00,WeatherDisplay:10.37,2013-02-25 17:26:00,
2013-02-25 12:31:00,52.3,38.9,29.99,NNE,22,4.6,4.6,60,0.00,CLR,,0.00,WeatherDisplay:10.37,2013-02-25 17:31:00,
2013-02-25 12:36:00,53.2,38.8,29.99,NNE,22,7.0,7.0,58,0.00,CLR,,0.00,WeatherDisplay:10.37,2013-02-25 17:36:00,
2013-02-25 12:41:00,53.8,38.4,29.99,SW,225,5.8,5.8,56,0.00,CLR,,0.00,WeatherDisplay:10.37,2013-02-25 17:41:00,
2013-02-25 12:46:00,54.5,38.7,29.98,NE,45,10.4,10.4,55,0.00,CLR,,0.00,WeatherDisplay:10.37,2013-02-25 17:46:00,
2013-02-25 12:52:00,54.5,37.7,29.98,West,270,6.9,6.9,53,0.00,CLR,,0.00,WeatherDisplay:10.37,2013-02-25 17:52:00,
2013-02-25 12:57:00,54.3,37.5,29.98,North,0,6.9,6.9,53,0.00,CLR,,0.00,WeatherDisplay:10.37,2013-02-25 17:57:00,
2013-02-25 13:02:00,54.5,38.2,29.97,East,90,5.8,5.8,54,0.00,CLR,,0.00,WeatherDisplay:10.37,2013-02-25 18:02:00,
2013-02-25 13:07:00,54.9,38.0,29.97,SW,225,1.1,0.0,53,0.00,CLR,,0.00,WeatherDisplay:10.37,2013-02-25 18:07:00,
2013-02-25 13:12:00,55.4,39.0,29.97,NE,45,8.1,8.1,54,0.00,CLR,,0.00,WeatherDisplay:10.37,2013-02-25 18:12:00,
2013-02-25 13:17:00,54.7,37.4,29.97,North,0,6.9,6.9,52,0.00,CLR,,0.00,WeatherDisplay:10.37,2013-02-25 18:17:00,
2013-02-25 13:22:00,54.3,37.5,29.96,West,270,10.4,10.4,53,0.00,CLR,,0.00,WeatherDisplay:10.37,2013-02-25 18:22:00,
2013-02-25 13:27:00,54.5,38.2,29.96,North,0,4.6,0.0,54,0.00,CLR,,0.00,WeatherDisplay:10.37,2013-02-25 18:27:00,
2013-02-25 13:32:00,55.0,38.2,29.95,West,270,5.8,5.8,53,0.00,CLR,,0.00,WeatherDisplay:10.37,2013-02-25 18:32:00,
2013-02-25 13:37:00,55.6,39.2,29.96,West,270,5.8,5.8,54,0.00,CLR,,0.00,WeatherDisplay:10.37,2013-02-25 18:37:00,
2013-02-25 13:42:00,55.6,39.2,29.95,SE,135,8.1,8.1,54,0.00,CLR,,0.00,WeatherDisplay:10.37,2013-02-25 18:42:00,
2013-02-25 13:47:00,55.8,39.4,29.95,SSW,202,4.6,0.0,54,0.00,CLR,,0.00,WeatherDisplay:10.37,2013-02-25 18:47:00,
2013-02-25 13:52:00,55.9,39.5,29.95,West,270,5.8,5.8,54,0.00,CLR,,0.00,WeatherDisplay:10.37,2013-02-25 18:52:00,
2013-02-25 13:57:00,55.9,40.0,29.94,North,0,5.8,5.8,55,0.00,CLR,,0.00,WeatherDisplay:10.37,2013-02-25 18:57:00,
2013-02-25 14:02:00,55.9,40.0,29.94,SE,135,8.1,8.1,55,0.00,CLR,,0.00,WeatherDisplay:10.37,2013-02-25 19:02:00,
2013-02-25 14:07:00,55.8,39.4,29.94,NW,315,8.1,8.1,54,0.00,CLR,,0.00,WeatherDisplay:10.37,2013-02-25 19:07:00,
2013-02-25 14:12:00,55.8,39.4,29.94,SE,135,4.6,4.6,54,0.00,CLR,,0.00,WeatherDisplay:10.37,2013-02-25 19:12:00,
2013-02-25 14:17:00,55.6,38.7,29.94,East,90,5.8,5.8,53,0.00,CLR,,0.00,WeatherDisplay:10.37,2013-02-25 19:17:00,
2013-02-25 14:22:00,55.6,38.7,29.93,SW,225,6.9,6.9,53,0.00,CLR,,0.00,WeatherDisplay:10.37,2013-02-25 19:22:00,
2013-02-25 14:27:00,55.6,39.2,29.94,SW,225,6.9,6.9,54,0.00,CLR,,0.00,WeatherDisplay:10.37,2013-02-25 19:27:00,
2013-02-25 14:32:00,55.8,38.9,29.93,East,90,5.8,5.8,53,0.00,CLR,,0.00,WeatherDisplay:10.37,2013-02-25 19:32:00,
2013-02-25 14:37:00,55.8,39.4,29.93,SE,135,6.9,6.9,54,0.00,CLR,,0.00,WeatherDisplay:10.37,2013-02-25 19:37:00,
2013-02-25 14:42:00,55.8,39.4,29.93,South,180,6.9,7.0,54,0.00,CLR,,0.00,WeatherDisplay:10.37,2013-02-25 19:42:00,
2013-02-25 14:47:00,55.4,38.5,29.93,North,0,2.3,2.3,53,0.00,CLR,,0.00,WeatherDisplay:10.37,2013-02-25 19:47:00,
2013-02-25 14:52:00,55.4,39.0,29.93,East,90,5.8,5.8,54,0.00,CLR,,0.00,WeatherDisplay:10.37,2013-02-25 19:52:00,
2013-02-25 14:57:00,55.2,38.4,29.93,South,180,2.3,2.3,53,0.00,CLR,,0.00,WeatherDisplay:10.37,2013-02-25 19:57:00,
2013-02-25 15:02:00,55.2,38.9,29.92,NW,315,0.0,0.0,54,0.00,CLR,,0.00,WeatherDisplay:10.37,2013-02-25 20:02:00,
2013-02-25 15:07:00,55.4,39.5,29.92,South,180,4.6,4.6,55,0.00,CLR,,0.00,WeatherDisplay:10.37,2013-02-25 20:07:00,
2013-02-25 15:12:00,55.2,38.9,29.92,SE,135,2.3,0.0,54,0.00,CLR,,0.00,WeatherDisplay:10.37,2013-02-25 20:12:00,
2013-02-25 15:17:00,55.2,38.9,29.92,NE,45,2.3,2.7,54,0.00,CLR,,0.00,WeatherDisplay:10.37,2013-02-25 20:17:00,
2013-02-25 15:22:00,55.2,38.9,29.92,North,0,4.6,4.6,54,0.00,CLR,,0.00,WeatherDisplay:10.37,2013-02-25 20:22:00,
2013-02-25 15:27:00,55.2,39.3,29.91,NE,45,2.3,2.3,55,0.00,CLR,,0.00,WeatherDisplay:10.37,2013-02-25 20:27:00,
2013-02-25 15:32:00,55.2,38.9,29.91,SW,225,2.3,0.0,54,0.00,CLR,,0.00,WeatherDisplay:10.37,2013-02-25 20:32:00,
2013-02-25 15:36:00,55.4,39.5,29.91,North,0,5.8,5.8,55,0.00,CLR,,0.00,WeatherDisplay:10.37,2013-02-25 20:36:00,
2013-02-25 15:42:00,55.4,39.5,29.91,North,0,4.6,0.0,55,0.00,CLR,,0.00,WeatherDisplay:10.37,2013-02-25 20:42:00,
2013-02-25 15:47:00,55.4,39.5,29.91,SE,135,4.6,4.6,55,0.00,CLR,,0.00,WeatherDisplay:10.37,2013-02-25 20:47:00,
2013-02-25 15:52:00,55.4,39.5,29.91,SW,225,2.3,0.0,55,0.00,CLR,,0.00,WeatherDisplay:10.37,2013-02-25 20:52:00,
2013-02-25 15:57:00,55.4,39.5,29.91,SW,225,4.6,4.6,55,0.00,CLR,,0.00,WeatherDisplay:10.37,2013-02-25 20:57:00,
2013-02-25 16:02:00,55.4,39.5,29.91,SW,225,4.6,4.6,55,0.00,CLR,,0.00,WeatherDisplay:10.37,2013-02-25 21:02:00,
2013-02-25 16:07:00,55.4,40.0,29.90,West,270,1.1,1.3,56,0.00,CLR,,0.00,WeatherDisplay:10.37,2013-02-25 21:07:00,
2013-02-25 16:12:00,55.8,39.8,29.89,SE,135,4.6,4.6,55,0.00,CLR,,0.00,WeatherDisplay:10.37,2013-02-25 21:12:00,
2013-02-25 16:17:00,55.9,40.0,29.89,SE,135,2.3,2.3,55,0.00,CLR,,0.00,WeatherDisplay:10.37,2013-02-25 21:17:00,
2013-02-25 16:22:00,56.5,40.5,29.89,NE,45,4.6,4.6,55,0.00,CLR,,0.00,WeatherDisplay:10.37,2013-02-25 21:22:00,
2013-02-25 16:27:00,57.0,41.0,29.88,NE,45,6.9,6.9,55,0.00,CLR,,0.00,WeatherDisplay:10.37,2013-02-25 21:27:00,
2013-02-25 16:32:00,57.2,40.2,29.88,North,0,4.6,0.0,53,0.00,CLR,,0.00,WeatherDisplay:10.37,2013-02-25 21:32:00,
2013-02-25 16:37:00,57.0,41.0,29.87,NE,45,4.6,0.0,55,0.00,CLR,,0.00,WeatherDisplay:10.37,2013-02-25 21:37:00,
2013-02-25 16:42:00,57.0,41.0,29.87,SW,225,2.3,0.0,55,0.00,CLR,,0.00,WeatherDisplay:10.37,2013-02-25 21:42:00,
2013-02-25 16:47:00,57.0,41.0,29.87,SW,225,2.3,2.3,55,0.00,CLR,,0.00,WeatherDisplay:10.37,2013-02-25 21:47:00,
2013-02-25 16:52:00,56.8,40.8,29.87,South,180,2.3,0.0,55,0.00,CLR,,0.00,WeatherDisplay:10.37,2013-02-25 21:52:00,
2013-02-25 16:57:00,56.8,40.8,29.86,NE,45,4.6,4.6,55,0.00,CLR,,0.00,WeatherDisplay:10.37,2013-02-25 21:57:00,
2013-02-25 17:02:00,56.8,40.8,29.86,NE,45,4.6,4.6,55,0.00,CLR,,0.00,WeatherDisplay:10.37,2013-02-25 22:02:00,
2013-02-25 17:07:00,57.0,41.0,29.85,NE,45,0.0,0.0,55,0.00,CLR,,0.00,WeatherDisplay:10.37,2013-02-25 22:07:00,
2013-02-25 17:12:00,57.0,41.0,29.85,NW,315,2.3,0.0,55,0.00,CLR,,0.00,WeatherDisplay:10.37,2013-02-25 22:12:00,
2013-02-25 17:17:00,56.7,41.1,29.85,South,180,2.3,0.0,56,0.00,CLR,,0.00,WeatherDisplay:10.37,2013-02-25 22:17:00,
2013-02-25 17:22:00,56.3,40.8,29.85,South,180,0.0,0.0,56,0.00,CLR,,0.00,WeatherDisplay:10.37,2013-02-25 22:22:00,
2013-02-25 17:27:00,56.1,41.1,29.85,NW,315,1.1,0.0,57,0.00,CLR,,0.00,WeatherDisplay:10.37,2013-02-25 22:27:00,
2013-02-25 17:32:00,55.8,41.2,29.84,NW,315,0.0,0.0,58,0.00,CLR,,0.00,WeatherDisplay:10.37,2013-02-25 22:32:00,
2013-02-25 17:37:00,55.6,41.9,29.84,NW,315,0.0,0.0,60,0.00,CLR,,0.00,WeatherDisplay:10.37,2013-02-25 22:37:00,
2013-02-25 17:42:00,55.4,42.2,29.84,West,270,0.0,0.0,61,0.00,CLR,,0.00,WeatherDisplay:10.37,2013-02-25 22:42:00,
2013-02-25 17:47:00,55.0,42.3,29.84,West,270,0.0,0.0,62,0.00,CLR,,0.00,WeatherDisplay:10.37,2013-02-25 22:47:00,
2013-02-25 17:52:00,55.0,42.3,29.84,West,270,0.0,0.0,62,0.00,CLR,,0.00,WeatherDisplay:10.37,2013-02-25 22:52:00,
2013-02-25 17:57:00,54.0,41.6,29.84,SW,225,2.3,0.0,63,0.00,CLR,,0.00,WeatherDisplay:10.37,2013-02-25 22:57:00,
2013-02-25 18:02:00,53.2,41.4,29.83,SW,225,0.0,0.0,64,0.00,CLR,,0.00,WeatherDisplay:10.37,2013-02-25 23:02:00,
2013-02-25 18:07:00,52.5,41.1,29.83,NW,315,0.0,0.0,65,0.00,CLR,,0.00,WeatherDisplay:10.37,2013-02-25 23:07:00,
2013-02-25 18:12:00,51.8,40.8,29.83,West,270,0.0,0.0,66,0.00,CLR,,0.00,WeatherDisplay:10.37,2013-02-25 23:12:00,
2013-02-25 18:17:00,51.3,41.1,29.83,West,270,0.0,0.0,68,0.00,CLR,,0.00,WeatherDisplay:10.37,2013-02-25 23:17:00,
2013-02-25 18:22:00,50.9,40.7,29.83,West,270,0.0,0.0,68,0.00,CLR,,0.00,WeatherDisplay:10.37,2013-02-25 23:22:00,
2013-02-25 18:27:00,50.4,40.9,29.82,West,270,0.0,0.0,70,0.00,CLR,,0.00,WeatherDisplay:10.37,2013-02-25 23:27:00,
2013-02-25 18:32:00,50.2,41.5,29.82,West,270,0.0,0.0,72,0.00,CLR,,0.00,WeatherDisplay:10.37,2013-02-25 23:32:00,
2013-02-25 18:37:00,49.6,41.7,29.81,West,270,0.0,0.0,74,0.00,CLR,,0.00,WeatherDisplay:10.37,2013-02-25 23:37:00,
2013-02-25 18:42:00,49.3,41.7,29.82,West,270,0.0,0.0,75,0.00,CLR,,0.00,WeatherDisplay:10.37,2013-02-25 23:42:00,
2013-02-25 18:47:00,49.1,41.9,29.82,West,270,0.0,0.0,76,0.00,CLR,,0.00,WeatherDisplay:10.37,2013-02-25 23:47:00,
2013-02-25 18:52:00,48.9,41.7,29.82,West,270,0.0,0.0,76,0.00,CLR,,0.00,WeatherDisplay:10.37,2013-02-25 23:52:00,
2013-02-25 18:57:00,48.9,42.0,29.83,West,270,0.0,0.0,77,0.00,CLR,,0.00,WeatherDisplay:10.37,2013-02-25 23:57:00,
2013-02-25 19:02:00,48.7,41.8,29.83,West,270,0.0,0.0,77,0.00,CLR,,0.00,WeatherDisplay:10.37,2013-02-26 00:02:00,
2013-02-25 19:07:00,48.9,42.4,29.83,North,0,0.0,0.0,78,0.00,CLR,,0.00,WeatherDisplay:10.37,2013-02-26 00:07:00,
2013-02-25 19:12:00,48.9,42.4,29.84,West,270,0.0,0.0,78,0.00,CLR,,0.00,WeatherDisplay:10.37,2013-02-26 00:12:00,
2013-02-25 19:17:00,49.1,42.5,29.84,NNW,338,2.3,0.0,78,0.00,CLR,,0.00,WeatherDisplay:10.37,2013-02-26 00:17:00,
2013-02-25 19:22:00,49.3,42.4,29.83,NNW,338,0.0,0.0,77,0.00,CLR,,0.00,WeatherDisplay:10.37,2013-02-26 00:22:00,
2013-02-25 19:27:00,49.5,42.5,29.83,NNW,338,0.0,0.0,77,0.00,CLR,,0.00,WeatherDisplay:10.37,2013-02-26 00:27:00,
2013-02-25 19:32:00,49.5,42.5,29.84,West,270,0.0,0.0,77,0.00,CLR,,0.00,WeatherDisplay:10.37,2013-02-26 00:32:00,
2013-02-25 19:37:00,49.6,43.1,29.84,West,270,0.0,0.0,78,0.00,CLR,,0.00,WeatherDisplay:10.37,2013-02-26 00:37:00,
2013-02-25 19:42:00,49.6,43.1,29.84,West,270,0.0,0.0,78,0.00,CLR,,0.00,WeatherDisplay:10.37,2013-02-26 00:42:00,
2013-02-25 19:47:00,49.8,43.2,29.84,NW,315,0.0,0.0,78,0.00,CLR,,0.00,WeatherDisplay:10.37,2013-02-26 00:47:00,
2013-02-25 19:52:00,49.8,43.2,29.83,NW,315,0.0,0.0,78,0.00,CLR,,0.00,WeatherDisplay:10.37,2013-02-26 00:52:00,
2013-02-25 19:57:00,50.0,43.4,29.84,NW,315,0.0,0.0,78,0.00,CLR,,0.00,WeatherDisplay:10.37,2013-02-26 00:57:00,
2013-02-25 20:02:00,49.8,43.9,29.83,NW,315,0.0,0.0,80,0.00,CLR,,0.00,WeatherDisplay:10.37,2013-02-26 01:02:00,
2013-02-25 20:07:00,49.8,43.9,29.83,West,270,0.0,0.0,80,0.00,CLR,,0.00,WeatherDisplay:10.37,2013-02-26 01:07:00,
2013-02-25 20:12:00,49.8,43.9,29.83,West,270,0.0,0.0,80,0.00,CLR,,0.00,WeatherDisplay:10.37,2013-02-26 01:12:00,
2013-02-25 20:17:00,49.8,44.2,29.83,West,270,0.0,0.0,81,0.00,CLR,,0.00,WeatherDisplay:10.37,2013-02-26 01:17:00,
2013-02-25 20:22:00,49.8,43.9,29.84,West,270,0.0,0.0,80,0.00,CLR,,0.00,WeatherDisplay:10.37,2013-02-26 01:22:00,
2013-02-25 20:27:00,49.8,43.9,29.84,North,0,0.0,0.0,80,0.00,CLR,,0.00,WeatherDisplay:10.37,2013-02-26 01:27:00,
2013-02-25 20:32:00,49.8,43.9,29.84,SE,135,0.0,0.0,80,0.00,CLR,,0.00,WeatherDisplay:10.37,2013-02-26 01:32:00,
2013-02-25 20:37:00,49.8,43.9,29.85,West,270,0.0,0.0,80,0.00,CLR,,0.00,WeatherDisplay:10.37,2013-02-26 01:37:00,
2013-02-25 20:42:00,49.8,44.2,29.84,North,0,0.0,0.0,81,0.00,CLR,,0.00,WeatherDisplay:10.37,2013-02-26 01:42:00,
2013-02-25 20:47:00,49.8,44.5,29.84,North,0,0.0,0.0,82,0.00,CLR,,0.00,WeatherDisplay:10.37,2013-02-26 01:47:00,
2013-02-25 20:52:00,49.8,44.2,29.84,North,0,0.0,0.0,81,0.00,CLR,,0.00,WeatherDisplay:10.37,2013-02-26 01:52:00,
2013-02-25 20:57:00,49.8,44.2,29.84,North,0,0.0,0.0,81,0.00,CLR,,0.00,WeatherDisplay:10.37,2013-02-26 01:57:00,
2013-02-25 21:02:00,49.6,44.0,29.84,North,0,0.0,0.0,81,0.00,CLR,,0.00,WeatherDisplay:10.37,2013-02-26 02:02:00,
2013-02-25 21:07:00,49.6,44.4,29.83,North,0,0.0,0.0,82,0.00,CLR,,0.00,WeatherDisplay:10.37,2013-02-26 02:07:00,
2013-02-25 21:12:00,49.6,44.4,29.83,North,0,0.0,0.0,82,0.00,CLR,,0.00,WeatherDisplay:10.37,2013-02-26 02:12:00,
2013-02-25 21:17:00,49.6,44.7,29.82,North,0,0.0,0.0,83,0.00,CLR,,0.00,WeatherDisplay:10.37,2013-02-26 02:17:00,
2013-02-25 21:22:00,49.6,44.4,29.82,NW,315,0.0,0.0,82,0.00,CLR,,0.00,WeatherDisplay:10.37,2013-02-26 02:22:00,
2013-02-25 21:27:00,49.5,44.8,29.82,SW,225,0.0,0.0,84,0.00,CLR,,0.00,WeatherDisplay:10.37,2013-02-26 02:27:00,
2013-02-25 21:32:00,49.5,44.8,29.81,West,270,0.0,0.0,84,0.00,CLR,,0.00,WeatherDisplay:10.37,2013-02-26 02:32:00,
2013-02-25 21:37:00,49.3,44.3,29.81,West,270,0.0,0.0,83,0.00,CLR,,0.00,WeatherDisplay:10.37,2013-02-26 02:37:00,
2013-02-25 21:42:00,49.3,44.3,29.80,West,270,0.0,0.0,83,0.00,CLR,,0.00,WeatherDisplay:10.37,2013-02-26 02:42:00,
2013-02-25 21:47:00,49.5,44.5,29.79,North,0,0.0,0.0,83,0.00,CLR,,0.00,WeatherDisplay:10.37,2013-02-26 02:47:00,
2013-02-25 21:52:00,49.5,44.5,29.80,SW,225,0.0,0.0,83,0.00,CLR,,0.00,WeatherDisplay:10.37,2013-02-26 02:52:00,
2013-02-25 21:57:00,49.5,44.5,29.80,SW,225,0.0,0.0,83,0.00,CLR,,0.00,WeatherDisplay:10.37,2013-02-26 02:57:00,
2013-02-25 22:02:00,49.6,44.7,29.81,SW,225,0.0,0.0,83,0.00,CLR,,0.00,WeatherDisplay:10.37,2013-02-26 03:02:00,
2013-02-25 22:07:00,49.8,44.9,29.81,West,270,0.0,0.0,83,0.00,CLR,,0.00,WeatherDisplay:10.37,2013-02-26 03:07:00,
2013-02-25 22:12:00,50.0,45.0,29.81,North,0,0.0,0.0,83,0.00,CLR,,0.00,WeatherDisplay:10.37,2013-02-26 03:12:00,
2013-02-25 22:17:00,50.0,44.7,29.81,West,270,0.0,0.0,82,0.00,CLR,,0.00,WeatherDisplay:10.37,2013-02-26 03:17:00,
2013-02-25 22:22:00,50.0,44.7,29.80,West,270,0.0,0.0,82,0.00,CLR,,0.00,WeatherDisplay:10.37,2013-02-26 03:22:00,
2013-02-25 22:27:00,50.0,44.7,29.79,West,270,0.0,0.0,82,0.00,CLR,,0.00,WeatherDisplay:10.37,2013-02-26 03:27:00,
2013-02-25 22:32:00,49.8,45.2,29.80,West,270,0.0,0.0,84,0.00,CLR,,0.00,WeatherDisplay:10.37,2013-02-26 03:32:00,
2013-02-25 22:37:00,49.8,45.2,29.80,West,270,0.0,0.0,84,0.00,CLR,,0.00,WeatherDisplay:10.37,2013-02-26 03:37:00,
2013-02-25 22:42:00,49.6,45.3,29.80,West,270,0.0,0.0,85,0.00,CLR,,0.00,WeatherDisplay:10.37,2013-02-26 03:42:00,
2013-02-25 22:47:00,49.6,45.3,29.80,West,270,0.0,0.0,85,0.00,CLR,,0.00,WeatherDisplay:10.37,2013-02-26 03:47:00,
2013-02-25 22:52:00,49.6,45.3,29.79,SSW,202,0.0,0.0,85,0.00,CLR,,0.00,WeatherDisplay:10.37,2013-02-26 03:52:00,
2013-02-25 22:57:00,49.6,45.3,29.79,SSW,202,0.0,0.0,85,0.00,CLR,,0.00,WeatherDisplay:10.37,2013-02-26 03:57:00,
2013-02-25 23:02:00,49.6,45.3,29.79,NW,315,0.0,0.0,85,0.00,CLR,,0.00,WeatherDisplay:10.37,2013-02-26 04:02:00,
2013-02-25 23:07:00,49.6,45.3,29.78,NW,315,0.0,0.0,85,0.00,CLR,,0.00,WeatherDisplay:10.37,2013-02-26 04:07:00,
2013-02-25 23:12:00,49.6,45.3,29.77,West,270,0.0,0.0,85,0.00,CLR,,0.00,WeatherDisplay:10.37,2013-02-26 04:12:00,
2013-02-25 23:17:00,49.6,45.3,29.78,South,180,0.0,0.0,85,0.00,CLR,,0.00,WeatherDisplay:10.37,2013-02-26 04:17:00,
2013-02-25 23:22:00,49.6,45.3,29.77,South,180,0.0,0.0,85,0.00,CLR,,0.00,WeatherDisplay:10.37,2013-02-26 04:22:00,
2013-02-25 23:27:00,50.2,45.8,29.78,West,270,0.0,0.0,85,0.00,CLR,,0.00,WeatherDisplay:10.37,2013-02-26 04:27:00,
2013-02-25 23:32:00,50.2,45.8,29.78,SW,225,2.3,2.3,85,0.00,CLR,,0.00,WeatherDisplay:10.37,2013-02-26 04:32:00,
2013-02-25 23:37:00,50.5,46.2,29.77,SW,225,2.3,2.3,85,0.00,CLR,,0.00,WeatherDisplay:10.37,2013-02-26 04:37:00,
2013-02-25 23:42:00,50.7,46.4,29.77,NW,315,1.1,0.0,85,0.00,CLR,,0.00,WeatherDisplay:10.37,2013-02-26 04:42:00,
2013-02-25 23:47:00,50.7,46.4,29.76,North,0,2.3,0.0,85,0.00,CLR,,0.00,WeatherDisplay:10.37,2013-02-26 04:47:00,
2013-02-25 23:52:00,50.5,46.2,29.77,North,0,2.3,0.0,85,0.00,CLR,,0.00,WeatherDisplay:10.37,2013-02-26 04:52:00,
2013-02-25 23:57:00,50.5,46.2,29.77,West,270,2.3,0.0,85,0.00,CLR,,0.00,WeatherDisplay:10.37,2013-02-26 04:57:00,